| time (UTC) | temp F | wind direction | speed MPH | gust MPH | rain 1hr in | rain 24hr in | rain mn in | humidity % | barometer mb |
| 20260903095553 | 67 | 130 | 0.0 | 1.0 | 0.00 | 0.22 | 0.22 | 93 | 1012.6 |
| 20260903095048 | 66 | 55 | 0.0 | 2.0 | 0.00 | 0.22 | 0.22 | 93 | 1012.2 |
| 20260903094548 | 66 | 217 | 0.0 | 3.0 | 0.00 | 0.22 | 0.22 | 94 | 1012.1 |
| 20260903094506 | 66 | 246 | 1.0 | 3.0 | 0.00 | 1.04 | 0.24 | 96 | 1010.4 |
| 20260903094044 | 66 | 230 | 0.0 | 3.0 | 0.00 | 0.22 | 0.22 | 95 | 1011.8 |
| 20260903093544 | 66 | 225 | 2.0 | 3.0 | 0.00 | 0.22 | 0.22 | 95 | 1011.8 |
| 20260903093040 | 66 | 62 | 0.0 | 2.0 | 0.00 | 0.22 | 0.22 | 94 | 1012.1 |
| 20260903093007 | 66 | 186 | 0.0 | 1.0 | 0.00 | 1.04 | 0.24 | 96 | 1010.3 |
| 20260903092540 | 66 | 23 | 0.0 | 2.0 | 0.00 | 0.22 | 0.22 | 94 | 1012.0 |
| 20260903092040 | 66 | 94 | 0.0 | 1.0 | 0.00 | 0.22 | 0.22 | 94 | 1012.1 |
| 20260903091538 | 66 | 74 | 2.0 | 3.0 | 0.00 | 0.22 | 0.22 | 94 | 1012.2 |
| 20260903091507 | 66 | 253 | 1.0 | 3.0 | 0.00 | 1.04 | 0.24 | 96 | 1010.6 |
| 20260903091032 | 66 | 48 | 0.0 | 2.0 | 0.00 | 0.22 | 0.22 | 95 | 1012.1 |
| 20260903090529 | 66 | 33 | 1.0 | 2.0 | 0.00 | 0.22 | 0.22 | 95 | 1011.9 |
| 20260903090027 | 66 | 59 | 0.0 | 2.0 | 0.00 | 0.22 | 0.22 | 94 | 1012.0 |
| 20260903090007 | 66 | 194 | 0.0 | 2.0 | 0.00 | 1.04 | 0.24 | 96 | 1010.4 |
| 20260903085525 | 66 | 78 | 0.0 | 2.0 | 0.00 | 0.22 | 0.22 | 94 | 1012.2 |
| 20260903085021 | 66 | 89 | 0.0 | 2.0 | 0.00 | 0.22 | 0.22 | 93 | 1011.9 |
| 20260903084520 | 66 | 309 | 0.0 | 1.0 | 0.00 | 0.22 | 0.22 | 93 | 1011.8 |
| 20260903084508 | 66 | 248 | 0.0 | 5.0 | 0.00 | 1.04 | 0.24 | 94 | 1010.1 |
| 20260903084014 | 66 | 235 | 2.0 | 5.0 | 0.00 | 0.22 | 0.22 | 94 | 1011.7 |
| 20260903083511 | 66 | 232 | 4.0 | 6.0 | 0.00 | 0.22 | 0.22 | 95 | 1011.2 |
| 20260903083010 | 65 | 3 | 2.0 | 4.0 | 0.00 | 0.22 | 0.22 | 95 | 1011.2 |
| 20260903083006 | 66 | 15 | 1.0 | 3.0 | 0.00 | 1.04 | 0.24 | 95 | 1009.6 |
| 20260903082504 | 65 | 38 | 0.0 | 1.0 | 0.00 | 0.22 | 0.22 | 95 | 1011.3 |
| 20260903082000 | 66 | 49 | 1.0 | 2.0 | 0.00 | 0.22 | 0.22 | 94 | 1011.2 |
| 20260903081506 | 66 | 309 | 0.0 | 3.0 | 0.00 | 1.04 | 0.24 | 94 | 1010.0 |
| 20260903081455 | 66 | 58 | 1.0 | 2.0 | 0.00 | 0.22 | 0.22 | 93 | 1011.6 |
| 20260903080951 | 66 | 49 | 0.0 | 2.0 | 0.00 | 0.22 | 0.22 | 93 | 1011.6 |
| 20260903080447 | 66 | 252 | 4.0 | 4.0 | 0.00 | 0.22 | 0.22 | 92 | 1011.9 |
| 20260903080007 | 66 | 243 | 1.0 | 7.0 | 0.00 | 1.04 | 0.24 | 95 | 1010.2 |
| 20260903075943 | 66 | 101 | 0.0 | 7.0 | 0.00 | 0.22 | 0.22 | 93 | 1011.7 |
| 20260903075438 | 66 | 242 | 0.0 | 3.0 | 0.00 | 0.22 | 0.22 | 94 | 1011.6 |
| 20260903074933 | 66 | 234 | 4.0 | 4.0 | 0.00 | 0.22 | 0.22 | 93 | 1011.4 |
| 20260903074507 | 66 | 237 | 1.0 | 10.0 | 0.00 | 1.04 | 0.24 | 96 | 1009.9 |
| 20260903074432 | 66 | 99 | 1.0 | 4.0 | 0.00 | 0.22 | 0.22 | 93 | 1011.7 |
| 20260903073927 | 66 | 232 | 3.0 | 10.0 | 0.00 | 0.22 | 0.22 | 94 | 1011.3 |
| 20260903073422 | 66 | 232 | 7.0 | 8.0 | 0.00 | 0.22 | 0.22 | 97 | 1011.1 |
| 20260903073007 | 65 | 231 | 3.0 | 10.0 | 0.03 | 1.04 | 0.24 | 99 | 1009.4 |
| 20260903072918 | 65 | 230 | 4.0 | 5.0 | 0.00 | 0.22 | 0.22 | 98 | 1011.0 |
| 20260903072414 | 65 | 165 | 1.0 | 14.0 | 0.00 | 0.22 | 0.22 | 99 | 1011.1 |
| 20260903071911 | 64 | 246 | 4.0 | 4.0 | 0.00 | 0.22 | 0.22 | 98 | 1011.3 |
| 20260903071507 | 64 | 348 | 1.0 | 2.0 | 0.07 | 1.04 | 0.24 | 99 | 1009.6 |
| 20260903071407 | 64 | 72 | 0.0 | 2.0 | 0.00 | 0.22 | 0.22 | 98 | 1011.1 |
| 20260903070903 | 64 | 339 | 0.0 | 1.0 | 0.00 | 0.22 | 0.22 | 98 | 1010.9 |
| 20260903070357 | 64 | 80 | 0.0 | 3.0 | 0.00 | 0.22 | 0.22 | 98 | 1010.7 |
| 20260903070007 | 64 | 111 | 0.0 | 2.0 | 0.13 | 1.04 | 0.24 | 99 | 1009.6 |
| 20260903065851 | 64 | 26 | 0.0 | 2.0 | 0.00 | 0.22 | 0.22 | 98 | 1011.0 |
| 20260903065351 | 64 | 64 | 0.0 | 2.0 | 0.02 | 0.22 | 0.22 | 98 | 1011.0 |
| 20260903064850 | 64 | 103 | 2.0 | 2.0 | 0.02 | 0.22 | 0.22 | 98 | 1011.2 |
| 20260903064507 | 64 | 27 | 0.0 | 3.0 | 0.15 | 1.04 | 0.24 | 99 | 1009.7 |
| 20260903064346 | 64 | 10 | 2.0 | 2.0 | 0.05 | 0.22 | 0.22 | 98 | 1011.3 |
| 20260903063842 | 64 | 44 | 0.0 | 1.0 | 0.17 | 0.22 | 0.22 | 98 | 1011.6 |
| 20260903063336 | 64 | 7 | 2.0 | 3.0 | 0.14 | 0.20 | 0.20 | 98 | 1011.7 |
| 20260903063009 | 64 | 260 | 0.0 | 2.0 | 0.13 | 1.01 | 0.21 | 98 | 1010.2 |
| 20260903062833 | 64 | 352 | 0.0 | 2.0 | 0.14 | 0.19 | 0.19 | 98 | 1011.9 |
| 20260903062332 | 64 | 38 | 0.0 | 1.0 | 0.17 | 0.18 | 0.18 | 98 | 1012.2 |
| 20260903061829 | 64 | 348 | 0.0 | 1.0 | 0.24 | 0.17 | 0.17 | 98 | 1012.4 |
| 20260903061506 | 64 | 249 | 1.0 | 6.0 | 0.09 | 0.97 | 0.17 | 98 | 1011.2 |
| 20260903061327 | 64 | 230 | 4.0 | 6.0 | 0.24 | 0.15 | 0.15 | 98 | 1013.0 |
| 20260903060824 | 64 | 232 | 4.0 | 6.0 | 0.17 | 0.13 | 0.13 | 98 | 1013.3 |
| 20260903060322 | 64 | 6 | 2.0 | 4.0 | 0.12 | 0.11 | 0.11 | 98 | 1013.4 |
| 20260903055821 | 64 | 326 | 0.0 | 2.0 | 0.07 | 0.09 | 0.09 | 98 | 1013.8 |
| 20260903055319 | 64 | 60 | 0.0 | 1.0 | 0.02 | 0.09 | 0.09 | 98 | 1013.8 |
| 20260903054814 | 64 | 314 | 0.0 | 1.0 | 0.00 | 0.08 | 0.08 | 98 | 1013.4 |
| 20260903054314 | 64 | 44 | 0.0 | 2.0 | 0.00 | 0.08 | 0.08 | 98 | 1013.4 |
| 20260903053811 | 64 | 77 | 0.0 | 1.0 | 0.02 | 0.08 | 0.08 | 98 | 1012.9 |
| 20260903053306 | 64 | 255 | 2.0 | 2.0 | 0.02 | 0.08 | 0.08 | 98 | 1013.1 |
| 20260903053008 | 64 | 260 | 1.0 | 3.0 | 0.04 | 0.88 | 0.08 | 98 | 1011.4 |
| 20260903052801 | 64 | 326 | 0.0 | 3.0 | 0.00 | 0.08 | 0.08 | 98 | 1013.1 |
| 20260903052257 | 64 | 249 | 3.0 | 4.0 | 0.00 | 0.08 | 0.08 | 98 | 1013.3 |
| 20260903051752 | 64 | 246 | 3.0 | 3.0 | 0.00 | 0.08 | 0.08 | 98 | 1013.2 |
| 20260903051507 | 64 | 204 | 0.0 | 1.0 | 0.08 | 0.88 | 0.08 | 98 | 1011.7 |
| 20260903051248 | 64 | 10 | 0.0 | 1.0 | 0.00 | 0.08 | 0.08 | 98 | 1013.2 |
| 20260903050743 | 64 | 230 | 0.0 | 2.0 | 0.02 | 0.08 | 0.08 | 98 | 1013.3 |
| 20260903050242 | 64 | 68 | 1.0 | 2.0 | 0.17 | 0.08 | 0.08 | 98 | 1013.3 |
| 20260903050006 | 64 | 204 | 0.0 | 2.0 | 0.08 | 0.89 | 0.08 | 98 | 1011.8 |
| 20260903045737 | 64 | 92 | 0.0 | 2.0 | 0.17 | 0.07 | 0.07 | 98 | 1013.4 |
| 20260903045233 | 64 | 247 | 1.0 | 2.0 | 0.00 | 0.05 | 0.05 | 98 | 1013.5 |
| 20260903044729 | 64 | 69 | 0.0 | 1.0 | 0.02 | 0.05 | 0.05 | 98 | 1014.0 |
| 20260903044507 | 64 | 180 | 0.0 | 1.0 | 0.05 | 0.86 | 0.05 | 98 | 1012.4 |
| 20260903044224 | 64 | 18 | 0.0 | 2.0 | 0.02 | 0.05 | 0.05 | 98 | 1014.3 |
| 20260903043721 | 64 | 61 | 0.0 | 2.0 | 0.12 | 0.04 | 0.04 | 98 | 1014.3 |
| 20260903043220 | 64 | 351 | 0.0 | 2.0 | 0.24 | 0.04 | 0.04 | 98 | 1014.6 |
| 20260903043008 | 64 | 180 | 0.0 | 1.0 | 0.04 | 0.85 | 0.04 | 98 | 1013.0 |
| 20260903042719 | 64 | 52 | 1.0 | 2.0 | 0.09 | 0.02 | 0.02 | 98 | 1014.6 |
| 20260903042214 | 64 | 77 | 1.0 | 2.0 | 0.00 | 0.00 | 0.00 | 98 | 1015.0 |
| 20260903041711 | 64 | 301 | 0.0 | 1.0 | 0.00 | 0.00 | 0.00 | 98 | 1014.5 |
| 20260903041507 | 64 | 180 | 0.0 | 1.0 | 0.00 | 0.81 | 0.00 | 98 | 1012.8 |
| 20260903041207 | 64 | 52 | 1.0 | 2.0 | 0.02 | 0.00 | 0.00 | 97 | 1014.1 |
| 20260903040706 | 64 | 83 | 0.0 | 2.0 | 0.02 | 0.00 | 0.00 | 97 | 1014.4 |
| 20260903040201 | 64 | 304 | 0.0 | 1.0 | 0.00 | 0.00 | 0.00 | 97 | 1014.3 |
| 20260903040009 | 64 | 180 | 0.0 | 1.0 | 0.01 | 0.81 | 0.00 | 97 | 1012.4 |
| 20260903035657 | 64 | 342 | 0.0 | 2.0 | 0.00 | 0.63 | 0.63 | 97 | 1013.6 |
| 20260903035154 | 64 | 328 | 0.0 | 1.0 | 0.00 | 0.63 | 0.63 | 97 | 1013.8 |
| 20260903034653 | 64 | 311 | 0.0 | 1.0 | 0.00 | 0.63 | 0.63 | 97 | 1013.6 |
| 20260903034506 | 64 | 180 | 0.0 | 2.0 | 0.04 | 0.81 | 0.81 | 97 | 1012.1 |
| 20260903034148 | 64 | 44 | 0.0 | 2.0 | 0.00 | 0.63 | 0.63 | 97 | 1013.7 |
| 20260903033644 | 64 | 142 | 0.0 | 2.0 | 0.00 | 0.63 | 0.63 | 97 | 1014.2 |
| 20260903033143 | 64 | 357 | 0.0 | 2.0 | 0.00 | 0.63 | 0.63 | 97 | 1014.4 |
| 20260903033008 | 65 | 221 | 1.0 | 2.0 | 0.43 | 0.81 | 0.81 | 97 | 1012.9 |
| 20260903032638 | 64 | 327 | 0.0 | 2.0 | 0.00 | 0.63 | 0.63 | 97 | 1014.4 |
| 20260903032134 | 64 | 81 | 2.0 | 2.0 | 0.00 | 0.63 | 0.63 | 97 | 1014.3 |
| 20260903031629 | 64 | 35 | 1.0 | 1.0 | 0.02 | 0.63 | 0.63 | 96 | 1014.3 |
| 20260903031124 | 64 | 15 | 0.0 | 2.0 | 0.05 | 0.63 | 0.63 | 96 | 1014.3 |
| 20260903030620 | 64 | 30 | 0.0 | 2.0 | 0.07 | 0.62 | 0.62 | 96 | 1014.5 |
| 20260903030115 | 64 | 87 | 1.0 | 2.0 | 0.02 | 0.61 | 0.61 | 96 | 1014.9 |
| 20260903030006 | 65 | 165 | 0.0 | 3.0 | 0.79 | 0.80 | 0.80 | 95 | 1013.4 |
| 20260903025610 | 65 | 62 | 1.0 | 3.0 | 0.09 | 0.61 | 0.61 | 96 | 1015.1 |
| 20260903025107 | 65 | 64 | 0.0 | 2.0 | 0.17 | 0.61 | 0.61 | 95 | 1015.1 |
| 20260903024606 | 66 | 227 | 1.0 | 5.0 | 0.59 | 0.59 | 0.59 | 95 | 1015.8 |
| 20260903024506 | 67 | 228 | 1.0 | 12.0 | 0.76 | 0.77 | 0.77 | 95 | 1014.3 |
| 20260903024100 | 66 | 341 | 0.0 | 4.0 | 1.42 | 0.56 | 0.56 | 96 | 1016.0 |
| 20260903023556 | 67 | 29 | 1.0 | 5.0 | 1.51 | 0.47 | 0.47 | 96 | 1016.2 |
| 20260903023051 | 67 | 349 | 3.0 | 4.0 | 1.09 | 0.30 | 0.30 | 95 | 1016.3 |
| 20260903023007 | 68 | 256 | 1.0 | 3.0 | 0.38 | 0.39 | 0.39 | 93 | 1014.6 |
| 20260903022551 | 67 | 269 | 0.0 | 2.0 | 1.13 | 0.20 | 0.20 | 93 | 1015.7 |
| 20260903022049 | 68 | 92 | 4.0 | 5.0 | 0.50 | 0.09 | 0.09 | 91 | 1015.0 |
| 20260903021544 | 68 | 49 | 0.0 | 1.0 | 0.00 | 0.01 | 0.01 | 89 | 1014.5 |
| 20260903021507 | 69 | 259 | 0.0 | 3.0 | 0.00 | 0.01 | 0.01 | 88 | 1012.8 |
| 20260903021039 | 68 | 245 | 2.0 | 2.0 | 0.00 | 0.01 | 0.01 | 88 | 1014.3 |
| 20260903020535 | 68 | 101 | 0.0 | 2.0 | 0.00 | 0.01 | 0.01 | 88 | 1014.3 |
| 20260903020035 | 68 | 294 | 0.0 | 3.0 | 0.00 | 0.01 | 0.01 | 88 | 1013.9 |
| 20260903020008 | 69 | 300 | 1.0 | 3.0 | 0.00 | 0.01 | 0.01 | 88 | 1012.2 |
| 20260903015530 | 69 | 49 | 0.0 | 2.0 | 0.00 | 0.01 | 0.01 | 88 | 1013.4 |
| 20260903015026 | 69 | 269 | 0.0 | 4.0 | 0.00 | 0.01 | 0.01 | 88 | 1013.5 |
| 20260903014525 | 69 | 76 | 1.0 | 5.0 | 0.00 | 0.01 | 0.01 | 88 | 1013.8 |
| 20260903014507 | 69 | 248 | 1.0 | 3.0 | 0.00 | 0.01 | 0.01 | 88 | 1012.0 |
| 20260903014020 | 69 | 51 | 0.0 | 3.0 | 0.00 | 0.01 | 0.01 | 88 | 1014.1 |
| 20260903013519 | 69 | 178 | 1.0 | 2.0 | 0.00 | 0.01 | 0.01 | 88 | 1013.8 |
| 20260903013014 | 69 | 271 | 0.0 | 4.0 | 0.00 | 0.01 | 0.01 | 88 | 1014.1 |
| 20260903013007 | 69 | 261 | 1.0 | 3.0 | 0.00 | 0.01 | 0.01 | 88 | 1012.2 |
| 20260903012513 | 69 | 81 | 0.0 | 2.0 | 0.00 | 0.01 | 0.01 | 88 | 1014.0 |
| 20260903012012 | 69 | 58 | 1.0 | 2.0 | 0.00 | 0.01 | 0.01 | 88 | 1014.1 |
| 20260903011507 | 69 | 146 | 1.0 | 2.0 | 0.00 | 0.01 | 0.01 | 88 | 1014.3 |
| 20260903011002 | 69 | 262 | 0.0 | 3.0 | 0.00 | 0.01 | 0.01 | 88 | 1014.4 |
| 20260903010457 | 69 | 99 | 0.0 | 2.0 | 0.00 | 0.01 | 0.01 | 88 | 1014.2 |
| 20260903010006 | 69 | 294 | 0.0 | 3.0 | 0.00 | 0.01 | 0.01 | 88 | 1012.2 |
| 20260903005955 | 69 | 85 | 2.0 | 2.0 | 0.00 | 0.01 | 0.01 | 88 | 1013.9 |
| 20260903005450 | 69 | 263 | 0.0 | 3.0 | 0.00 | 0.01 | 0.01 | 88 | 1013.3 |
| 20260903004947 | 69 | 248 | 2.0 | 3.0 | 0.00 | 0.01 | 0.01 | 88 | 1013.2 |
| 20260903004506 | 69 | 292 | 0.0 | 3.0 | 0.00 | 0.01 | 0.01 | 87 | 1011.1 |
| 20260903004446 | 69 | 85 | 0.0 | 2.0 | 0.00 | 0.01 | 0.01 | 87 | 1012.9 |
| 20260903003943 | 69 | 41 | 1.0 | 3.0 | 0.00 | 0.01 | 0.01 | 87 | 1012.9 |
| 20260903003442 | 69 | 237 | 2.0 | 4.0 | 0.00 | 0.01 | 0.01 | 87 | 1013.0 |
| 20260903002938 | 69 | 219 | 1.0 | 3.0 | 0.00 | 0.01 | 0.01 | 87 | 1013.1 |
| 20260903002432 | 69 | 50 | 1.0 | 2.0 | 0.00 | 0.01 | 0.01 | 87 | 1013.5 |
| 20260903001932 | 69 | 254 | 2.0 | 2.0 | 0.00 | 0.01 | 0.01 | 87 | 1013.5 |
| 20260903001432 | 69 | 104 | 0.0 | 2.0 | 0.00 | 0.01 | 0.01 | 87 | 1013.7 |
| 20260903000932 | 69 | 314 | 2.0 | 2.0 | 0.00 | 0.01 | 0.01 | 87 | 1013.6 |
| 20260903000427 | 69 | 65 | 0.0 | 3.0 | 0.00 | 0.01 | 0.01 | 87 | 1013.4 |
| 20260903000007 | 70 | 19 | 1.0 | 5.0 | 0.00 | 0.01 | 0.01 | 87 | 1011.7 |
| 20260902235925 | 70 | 89 | 0.0 | 3.0 | 0.00 | 0.01 | 0.01 | 87 | 1013.4 |
| 20260902235421 | 70 | 129 | 0.0 | 4.0 | 0.00 | 0.01 | 0.01 | 87 | 1013.5 |
| 20260902234920 | 70 | 60 | 1.0 | 2.0 | 0.00 | 0.01 | 0.01 | 87 | 1013.5 |
| 20260902234507 | 70 | 137 | 0.0 | 5.0 | 0.00 | 0.01 | 0.01 | 88 | 1011.7 |
| 20260902234416 | 70 | 13 | 1.0 | 2.0 | 0.00 | 0.01 | 0.01 | 87 | 1013.6 |
| 20260902233915 | 70 | 77 | 1.0 | 5.0 | 0.00 | 0.01 | 0.01 | 87 | 1013.5 |
| 20260902233409 | 70 | 217 | 0.0 | 4.0 | 0.00 | 0.01 | 0.01 | 87 | 1013.5 |
| 20260902233007 | 70 | 244 | 2.0 | 6.0 | 0.00 | 0.01 | 0.01 | 88 | 1011.2 |
| 20260902232908 | 70 | 249 | 1.0 | 6.0 | 0.00 | 0.01 | 0.01 | 88 | 1012.9 |
| 20260902232403 | 70 | 229 | 1.0 | 4.0 | 0.00 | 0.01 | 0.01 | 88 | 1012.6 |
| 20260902231902 | 70 | 353 | 2.0 | 2.0 | 0.00 | 0.01 | 0.01 | 88 | 1012.8 |
| 20260902231508 | 70 | 306 | 1.0 | 3.0 | 0.00 | 0.01 | 0.01 | 88 | 1011.1 |
| 20260902231357 | 70 | 129 | 0.0 | 3.0 | 0.00 | 0.01 | 0.01 | 88 | 1013.0 |
| 20260902230852 | 70 | 292 | 1.0 | 2.0 | 0.00 | 0.01 | 0.01 | 88 | 1012.8 |
| 20260902230352 | 70 | 219 | 0.0 | 5.0 | 0.00 | 0.01 | 0.01 | 87 | 1013.0 |
| 20260902230008 | 71 | 246 | 1.0 | 3.0 | 0.00 | 0.01 | 0.01 | 87 | 1011.2 |
| 20260902225851 | 70 | 231 | 5.0 | 5.0 | 0.00 | 0.01 | 0.01 | 87 | 1012.9 |
| 20260902225347 | 70 | 19 | 0.0 | 3.0 | 0.00 | 0.01 | 0.01 | 87 | 1013.0 |
| 20260902224845 | 71 | 50 | 1.0 | 5.0 | 0.00 | 0.01 | 0.01 | 87 | 1013.2 |
| 20260902224340 | 71 | 44 | 0.0 | 2.0 | 0.00 | 0.01 | 0.01 | 86 | 1013.3 |
| 20260902223837 | 71 | 65 | 2.0 | 5.0 | 0.00 | 0.01 | 0.01 | 86 | 1013.1 |
| 20260902223337 | 71 | 14 | 2.0 | 2.0 | 0.00 | 0.01 | 0.01 | 86 | 1013.0 |
| 20260902223008 | 72 | 310 | 1.0 | 3.0 | 0.00 | 0.01 | 0.01 | 85 | 1011.3 |
| 20260902222837 | 71 | 32 | 1.0 | 2.0 | 0.00 | 0.01 | 0.01 | 86 | 1013.1 |
| 20260902222335 | 71 | 69 | 2.0 | 4.0 | 0.00 | 0.01 | 0.01 | 85 | 1013.0 |
| 20260902221830 | 72 | 307 | 1.0 | 3.0 | 0.00 | 0.01 | 0.01 | 85 | 1013.2 |
| 20260902221506 | 72 | 51 | 0.0 | 3.0 | 0.00 | 0.01 | 0.01 | 85 | 1011.4 |
| 20260902221329 | 72 | 29 | 3.0 | 3.0 | 0.00 | 0.01 | 0.01 | 85 | 1013.1 |
| 20260902220825 | 72 | 5 | 1.0 | 3.0 | 0.00 | 0.01 | 0.01 | 85 | 1013.2 |
| 20260902220324 | 72 | 343 | 0.0 | 2.0 | 0.00 | 0.01 | 0.01 | 85 | 1013.3 |
| 20260902220007 | 72 | 261 | 1.0 | 3.0 | 0.00 | 0.01 | 0.01 | 85 | 1011.7 |
| 20260902215821 | 72 | 8 | 0.0 | 2.0 | 0.00 | 0.01 | 0.01 | 85 | 1013.5 |
| 20260902215320 | 72 | 29 | 2.0 | 2.0 | 0.00 | 0.01 | 0.01 | 85 | 1013.4 |
| 20260902214816 | 72 | 240 | 3.0 | 4.0 | 0.00 | 0.01 | 0.01 | 85 | 1013.6 |
| 20260902214315 | 72 | 97 | 0.0 | 3.0 | 0.00 | 0.01 | 0.01 | 85 | 1013.4 |
| 20260902213811 | 72 | 267 | 0.0 | 2.0 | 0.00 | 0.01 | 0.01 | 85 | 1013.5 |
| 20260902213306 | 72 | 115 | 1.0 | 2.0 | 0.00 | 0.01 | 0.01 | 85 | 1013.7 |
| 20260902213007 | 72 | 245 | 1.0 | 3.0 | 0.00 | 0.01 | 0.01 | 86 | 1012.0 |
| 20260902212804 | 71 | 75 | 0.0 | 2.0 | 0.00 | 0.01 | 0.01 | 86 | 1014.0 |
| 20260902212305 | 71 | 70 | 0.0 | 3.0 | 0.00 | 0.01 | 0.01 | 85 | 1013.8 |
| 20260902211758 | 72 | 269 | 0.0 | 2.0 | 0.00 | 0.01 | 0.01 | 85 | 1013.7 |
| 20260902211506 | 72 | 13 | 1.0 | 3.0 | 0.00 | 0.01 | 0.01 | 85 | 1012.1 |
| 20260902211253 | 72 | 89 | 1.0 | 2.0 | 0.00 | 0.01 | 0.01 | 85 | 1013.6 |
| 20260902210753 | 72 | 348 | 1.0 | 2.0 | 0.00 | 0.01 | 0.01 | 85 | 1013.8 |
| 20260902210248 | 72 | 54 | 1.0 | 3.0 | 0.00 | 0.01 | 0.01 | 85 | 1013.8 |
| 20260902205746 | 72 | 236 | 0.0 | 3.0 | 0.00 | 0.01 | 0.01 | 85 | 1013.6 |
| 20260902205242 | 72 | 31 | 0.0 | 2.0 | 0.00 | 0.01 | 0.01 | 84 | 1013.5 |
| 20260902204737 | 72 | 34 | 0.0 | 2.0 | 0.00 | 0.01 | 0.01 | 85 | 1013.7 |
| 20260902204507 | 72 | 256 | 1.0 | 3.0 | 0.00 | 0.01 | 0.01 | 85 | 1011.7 |
| 20260902204232 | 72 | 250 | 3.0 | 3.0 | 0.00 | 0.01 | 0.01 | 86 | 1013.6 |
| 20260902203732 | 71 | 4 | 0.0 | 1.0 | 0.00 | 0.01 | 0.01 | 85 | 1013.6 |
| 20260902203228 | 72 | 250 | 0.0 | 2.0 | 0.00 | 0.01 | 0.01 | 85 | 1013.8 |
| 20260902203008 | 72 | 227 | 0.0 | 2.0 | 0.00 | 0.01 | 0.01 | 86 | 1012.1 |
| 20260902202728 | 72 | 102 | 0.0 | 2.0 | 0.00 | 0.01 | 0.01 | 86 | 1013.6 |
| 20260902202224 | 71 | 67 | 0.0 | 2.0 | 0.00 | 0.01 | 0.01 | 86 | 1013.5 |
| 20260902201721 | 71 | 66 | 1.0 | 3.0 | 0.00 | 0.01 | 0.01 | 86 | 1013.8 |
| 20260902201508 | 71 | 258 | 0.0 | 2.0 | 0.00 | 0.01 | 0.01 | 86 | 1012.3 |
| 20260902201219 | 71 | 256 | 0.0 | 3.0 | 0.00 | 0.01 | 0.01 | 86 | 1014.2 |
| 20260902200715 | 71 | 352 | 0.0 | 2.0 | 0.00 | 0.01 | 0.01 | 86 | 1014.1 |
| 20260902200211 | 71 | 62 | 0.0 | 2.0 | 0.00 | 0.01 | 0.01 | 86 | 1014.5 |
| 20260902200007 | 72 | 251 | 1.0 | 2.0 | 0.00 | 0.01 | 0.01 | 85 | 1012.8 |
| 20260902195706 | 72 | 61 | 1.0 | 3.0 | 0.00 | 0.01 | 0.01 | 84 | 1014.5 |
| 20260902195205 | 72 | 68 | 1.0 | 2.0 | 0.00 | 0.01 | 0.01 | 85 | 1014.5 |
| 20260902194704 | 72 | 66 | 2.0 | 2.0 | 0.00 | 0.01 | 0.01 | 84 | 1014.5 |
| 20260902194507 | 71 | 316 | 0.0 | 3.0 | 0.00 | 0.01 | 0.01 | 86 | 1012.8 |
| 20260902194200 | 72 | 305 | 1.0 | 2.0 | 0.00 | 0.01 | 0.01 | 84 | 1014.6 |
| 20260902193655 | 71 | 180 | 0.0 | 2.0 | 0.00 | 0.01 | 0.01 | 85 | 1014.5 |
| 20260902193151 | 71 | 260 | 0.0 | 3.0 | 0.00 | 0.01 | 0.01 | 85 | 1014.6 |
| 20260902193008 | 71 | 250 | 0.0 | 2.0 | 0.00 | 0.01 | 0.01 | 87 | 1012.8 |
| 20260902192649 | 71 | 193 | 0.0 | 3.0 | 0.00 | 0.01 | 0.01 | 87 | 1014.4 |
| 20260902192148 | 71 | 250 | 1.0 | 3.0 | 0.00 | 0.01 | 0.01 | 87 | 1014.4 |
| 20260902191643 | 71 | 241 | 2.0 | 2.0 | 0.00 | 0.01 | 0.01 | 87 | 1014.4 |
| 20260902191507 | 71 | 232 | 1.0 | 3.0 | 0.00 | 0.01 | 0.01 | 88 | 1012.8 |
| 20260902191143 | 71 | 205 | 0.0 | 2.0 | 0.00 | 0.01 | 0.01 | 87 | 1014.5 |
| 20260902190639 | 71 | 87 | 0.0 | 2.0 | 0.00 | 0.01 | 0.01 | 87 | 1014.4 |
| 20260902190134 | 71 | 309 | 2.0 | 3.0 | 0.00 | 0.01 | 0.01 | 87 | 1014.5 |
| 20260902190008 | 70 | 270 | 1.0 | 6.0 | 0.00 | 0.01 | 0.01 | 89 | 1012.8 |
| 20260902185629 | 70 | 43 | 1.0 | 2.0 | 0.00 | 0.01 | 0.01 | 88 | 1014.5 |
| 20260902185125 | 70 | 62 | 2.0 | 6.0 | 0.00 | 0.01 | 0.01 | 88 | 1014.3 |
| 20260902184620 | 70 | 291 | 2.0 | 3.0 | 0.00 | 0.01 | 0.01 | 88 | 1014.4 |
| 20260902184507 | 70 | 231 | 1.0 | 3.0 | 0.00 | 0.01 | 0.01 | 89 | 1012.7 |
| 20260902184115 | 70 | 286 | 2.0 | 2.0 | 0.00 | 0.01 | 0.01 | 88 | 1014.4 |
| 20260902183612 | 70 | 23 | 2.0 | 2.0 | 0.00 | 0.01 | 0.01 | 88 | 1014.4 |
| 20260902183108 | 70 | 0 | 0.0 | 2.0 | 0.00 | 0.01 | 0.01 | 88 | 1014.5 |
| 20260902183008 | 70 | 317 | 2.0 | 6.0 | 0.00 | 0.01 | 0.01 | 88 | 1012.9 |
| 20260902182604 | 70 | 99 | 0.0 | 3.0 | 0.00 | 0.01 | 0.01 | 89 | 1014.6 |
| 20260902182100 | 70 | 58 | 0.0 | 4.0 | 0.00 | 0.01 | 0.01 | 88 | 1014.4 |
| 20260902181556 | 70 | 24 | 4.0 | 4.0 | 0.00 | 0.01 | 0.01 | 88 | 1014.6 |
| 20260902181507 | 70 | 298 | 1.0 | 3.0 | 0.00 | 0.01 | 0.01 | 88 | 1013.0 |
| 20260902181055 | 70 | 70 | 1.0 | 2.0 | 0.00 | 0.01 | 0.01 | 88 | 1014.9 |
| 20260902180555 | 70 | 199 | 1.0 | 3.0 | 0.00 | 0.01 | 0.01 | 88 | 1015.2 |
| 20260902180051 | 70 | 312 | 0.0 | 2.0 | 0.00 | 0.01 | 0.01 | 88 | 1015.4 |
| 20260902180008 | 71 | 283 | 1.0 | 3.0 | 0.00 | 0.01 | 0.01 | 88 | 1013.5 |
| 20260902175551 | 70 | 84 | 0.0 | 2.0 | 0.00 | 0.01 | 0.01 | 88 | 1015.2 |
| 20260902175047 | 71 | 220 | 0.0 | 2.0 | 0.00 | 0.01 | 0.01 | 88 | 1015.2 |
| 20260902174543 | 71 | 57 | 2.0 | 3.0 | 0.00 | 0.01 | 0.01 | 87 | 1015.3 |
| 20260902174038 | 71 | 78 | 0.0 | 2.0 | 0.00 | 0.01 | 0.01 | 87 | 1015.3 |
| 20260902173538 | 71 | 36 | 0.0 | 2.0 | 0.00 | 0.01 | 0.01 | 87 | 1015.4 |
| 20260902173033 | 71 | 75 | 1.0 | 3.0 | 0.00 | 0.01 | 0.01 | 88 | 1015.6 |
| 20260902173008 | 71 | 86 | 0.0 | 3.0 | 0.00 | 0.01 | 0.01 | 88 | 1013.8 |
| 20260902172532 | 71 | 10 | 0.0 | 2.0 | 0.00 | 0.01 | 0.01 | 88 | 1015.7 |
| 20260902172028 | 71 | 269 | 0.0 | 2.0 | 0.00 | 0.01 | 0.01 | 88 | 1015.5 |
| 20260902171523 | 71 | 254 | 2.0 | 5.0 | 0.00 | 0.01 | 0.01 | 87 | 1015.6 |
| 20260902171019 | 71 | 340 | 0.0 | 3.0 | 0.00 | 0.01 | 0.01 | 88 | 1015.5 |
| 20260902170514 | 71 | 231 | 2.0 | 2.0 | 0.00 | 0.01 | 0.01 | 88 | 1015.3 |
| 20260902170011 | 71 | 247 | 4.0 | 4.0 | 0.00 | 0.01 | 0.01 | 88 | 1015.5 |
| 20260902170006 | 71 | 256 | 2.0 | 6.0 | 0.00 | 0.01 | 0.01 | 88 | 1013.7 |
| 20260902165510 | 71 | 63 | 2.0 | 6.0 | 0.00 | 0.01 | 0.01 | 88 | 1015.5 |
| 20260902165010 | 71 | 118 | 0.0 | 3.0 | 0.00 | 0.01 | 0.01 | 88 | 1015.5 |
| 20260902164506 | 71 | 255 | 2.0 | 3.0 | 0.00 | 0.01 | 0.01 | 89 | 1013.8 |
| 20260902164003 | 71 | 197 | 0.0 | 3.0 | 0.00 | 0.01 | 0.01 | 89 | 1015.1 |
| 20260902163459 | 71 | 248 | 4.0 | 4.0 | 0.00 | 0.01 | 0.01 | 88 | 1015.2 |
| 20260902163007 | 71 | 194 | 1.0 | 3.0 | 0.00 | 0.01 | 0.01 | 90 | 1013.3 |
| 20260902162957 | 71 | 92 | 0.0 | 2.0 | 0.00 | 0.01 | 0.01 | 89 | 1015.0 |
| 20260902162452 | 71 | 198 | 1.0 | 3.0 | 0.00 | 0.01 | 0.01 | 89 | 1014.9 |
| 20260902161953 | 71 | 240 | 2.0 | 3.0 | 0.00 | 0.01 | 0.01 | 90 | 1015.1 |
| 20260902161506 | 71 | 226 | 1.0 | 3.0 | 0.00 | 0.01 | 0.01 | 90 | 1013.2 |
| 20260902161448 | 71 | 142 | 1.0 | 5.0 | 0.00 | 0.01 | 0.01 | 89 | 1014.6 |
| 20260902160943 | 71 | 221 | 1.0 | 5.0 | 0.00 | 0.01 | 0.01 | 90 | 1014.9 |
| 20260902160439 | 71 | 14 | 0.0 | 2.0 | 0.00 | 0.01 | 0.01 | 90 | 1015.2 |
| 20260902160009 | 70 | 261 | 1.0 | 2.0 | 0.00 | 0.01 | 0.01 | 91 | 1013.6 |
| 20260902155937 | 71 | 289 | 2.0 | 2.0 | 0.00 | 0.01 | 0.01 | 90 | 1015.1 |
| 20260902155433 | 70 | 99 | 0.0 | 2.0 | 0.00 | 0.01 | 0.01 | 91 | 1015.5 |
| 20260902154926 | 70 | 67 | 0.0 | 2.0 | 0.00 | 0.01 | 0.01 | 91 | 1015.5 |
| 20260902154507 | 70 | 288 | 0.0 | 2.0 | 0.00 | 0.01 | 0.01 | 92 | 1013.7 |
| 20260902154422 | 70 | 8 | 0.0 | 2.0 | 0.00 | 0.01 | 0.01 | 91 | 1015.3 |
| 20260902153921 | 70 | 52 | 1.0 | 1.0 | 0.00 | 0.01 | 0.01 | 91 | 1015.4 |
| 20260902153420 | 70 | 322 | 0.0 | 2.0 | 0.00 | 0.01 | 0.01 | 91 | 1015.4 |
| 20260902153007 | 70 | 263 | 2.0 | 5.0 | 0.00 | 0.01 | 0.01 | 91 | 1013.7 |
| 20260902152915 | 70 | 221 | 0.0 | 4.0 | 0.02 | 0.01 | 0.01 | 91 | 1015.2 |
| 20260902152412 | 70 | 242 | 2.0 | 4.0 | 0.02 | 0.00 | 0.00 | 90 | 1015.0 |
| 20260902151907 | 71 | 242 | 6.0 | 6.0 | 0.02 | 0.00 | 0.00 | 89 | 1015.1 |
| 20260902151507 | 71 | 288 | 1.0 | 3.0 | 0.00 | 0.01 | 0.01 | 89 | 1013.3 |
| 20260902151403 | 71 | 306 | 1.0 | 4.0 | 0.00 | 0.00 | 0.00 | 89 | 1015.1 |
| 20260902150902 | 71 | 216 | 3.0 | 4.0 | 0.00 | 0.00 | 0.00 | 88 | 1015.1 |
| 20260902150359 | 71 | 227 | 1.0 | 3.0 | 0.00 | 0.00 | 0.00 | 88 | 1014.9 |
| 20260902150006 | 71 | 299 | 1.0 | 2.0 | 0.00 | 0.01 | 0.01 | 88 | 1013.3 |
| 20260902145858 | 71 | 271 | 2.0 | 2.0 | 0.00 | 0.00 | 0.00 | 88 | 1015.0 |
| 20260902145353 | 71 | 60 | 1.0 | 2.0 | 0.00 | 0.00 | 0.00 | 88 | 1015.1 |
| 20260902144848 | 71 | 248 | 2.0 | 3.0 | 0.00 | 0.00 | 0.00 | 88 | 1015.3 |
| 20260902144345 | 71 | 311 | 0.0 | 1.0 | 0.00 | 0.00 | 0.00 | 88 | 1015.3 |
| 20260902143844 | 71 | 230 | 2.0 | 3.0 | 0.00 | 0.00 | 0.00 | 88 | 1015.1 |
| 20260902143339 | 71 | 265 | 2.0 | 4.0 | 0.00 | 0.00 | 0.00 | 88 | 1015.1 |
| 20260902143007 | 71 | 237 | 1.0 | 3.0 | 0.00 | 0.01 | 0.01 | 88 | 1013.4 |
| 20260902142835 | 71 | 248 | 2.0 | 3.0 | 0.00 | 0.00 | 0.00 | 89 | 1015.2 |
| 20260902142331 | 71 | 260 | 1.0 | 2.0 | 0.00 | 0.00 | 0.00 | 88 | 1015.6 |
| 20260902141826 | 71 | 232 | 0.0 | 2.0 | 0.00 | 0.00 | 0.00 | 88 | 1015.8 |
| 20260902141322 | 71 | 226 | 4.0 | 6.0 | 0.00 | 0.00 | 0.00 | 87 | 1015.7 |
| 20260902140821 | 71 | 251 | 1.0 | 6.0 | 0.00 | 0.00 | 0.00 | 87 | 1015.8 |
| 20260902140317 | 71 | 295 | 1.0 | 3.0 | 0.00 | 0.00 | 0.00 | 88 | 1015.7 |
| 20260902140007 | 71 | 243 | 1.0 | 3.0 | 0.00 | 0.01 | 0.01 | 89 | 1013.8 |
| 20260902135815 | 71 | 82 | 1.0 | 1.0 | 0.00 | 0.00 | 0.00 | 89 | 1015.5 |
| 20260902135311 | 71 | 229 | 2.0 | 2.0 | 0.00 | 0.00 | 0.00 | 89 | 1015.5 |
| 20260902134810 | 71 | 229 | 0.0 | 1.0 | 0.00 | 0.00 | 0.00 | 89 | 1015.3 |
| 20260902134306 | 72 | 236 | 1.0 | 2.0 | 0.00 | 0.00 | 0.00 | 89 | 1015.4 |
| 20260902133801 | 72 | 111 | 0.0 | 1.0 | 0.00 | 0.00 | 0.00 | 88 | 1015.4 |
| 20260902133301 | 72 | 44 | 0.0 | 2.0 | 0.00 | 0.00 | 0.00 | 88 | 1015.1 |
| 20260902133007 | 72 | 210 | 0.0 | 1.0 | 0.00 | 0.01 | 0.01 | 89 | 1013.5 |
| 20260902132756 | 72 | 50 | 0.0 | 2.0 | 0.00 | 0.00 | 0.00 | 88 | 1015.3 |
| 20260902132251 | 72 | 84 | 0.0 | 1.0 | 0.00 | 0.00 | 0.00 | 88 | 1014.9 |
| 20260902131747 | 72 | 46 | 0.0 | 1.0 | 0.00 | 0.00 | 0.00 | 87 | 1015.0 |
| 20260902131507 | 72 | 210 | 0.0 | 1.0 | 0.00 | 0.01 | 0.01 | 88 | 1013.3 |
| 20260902131243 | 72 | 68 | 1.0 | 2.0 | 0.00 | 0.00 | 0.00 | 88 | 1015.0 |
| 20260902130743 | 72 | 7 | 1.0 | 2.0 | 0.00 | 0.00 | 0.00 | 88 | 1015.1 |
| 20260902130238 | 72 | 30 | 0.0 | 2.0 | 0.00 | 0.00 | 0.00 | 88 | 1015.0 |
| 20260902130006 | 72 | 210 | 0.0 | 1.0 | 0.00 | 0.01 | 0.01 | 89 | 1013.2 |
| 20260902125733 | 72 | 230 | 0.0 | 1.0 | 0.00 | 0.00 | 0.00 | 88 | 1015.0 |
| 20260902125230 | 72 | 286 | 0.0 | 1.0 | 0.00 | 0.00 | 0.00 | 89 | 1014.8 |
| 20260902124726 | 72 | 167 | 0.0 | 2.0 | 0.00 | 0.00 | 0.00 | 89 | 1014.5 |
| 20260902124506 | 71 | 133 | 1.0 | 2.0 | 0.00 | 0.04 | 0.01 | 91 | 1012.9 |
| 20260902124221 | 72 | 89 | 0.0 | 1.0 | 0.00 | 0.00 | 0.00 | 90 | 1014.6 |
| 20260902123717 | 71 | 45 | 0.0 | 1.0 | 0.00 | 0.00 | 0.00 | 90 | 1014.6 |
| 20260902123213 | 71 | 52 | 0.0 | 1.0 | 0.00 | 0.00 | 0.00 | 90 | 1014.7 |
| 20260902123006 | 71 | 276 | 1.0 | 2.0 | 0.00 | 0.05 | 0.01 | 92 | 1012.7 |
| 20260902122711 | 71 | 45 | 2.0 | 2.0 | 0.00 | 0.00 | 0.00 | 90 | 1014.5 |
| 20260902122207 | 71 | 259 | 0.0 | 2.0 | 0.00 | 0.00 | 0.00 | 91 | 1014.3 |
| 20260902121702 | 71 | 174 | 1.0 | 2.0 | 0.00 | 0.00 | 0.00 | 91 | 1014.2 |
| 20260902121506 | 70 | 317 | 0.0 | 2.0 | 0.00 | 0.05 | 0.01 | 93 | 1012.5 |
| 20260902121202 | 70 | 106 | 0.0 | 2.0 | 0.00 | 0.00 | 0.00 | 92 | 1014.2 |
| 20260902120658 | 70 | 103 | 0.0 | 1.0 | 0.00 | 0.00 | 0.00 | 92 | 1014.2 |
| 20260902120154 | 70 | 73 | 2.0 | 2.0 | 0.00 | 0.00 | 0.00 | 93 | 1014.4 |
| 20260902115654 | 70 | 80 | 0.0 | 2.0 | 0.00 | 0.00 | 0.00 | 93 | 1014.2 |
| 20260902115150 | 70 | 72 | 0.0 | 2.0 | 0.00 | 0.00 | 0.00 | 93 | 1014.2 |
| 20260902114646 | 70 | 49 | 0.0 | 2.0 | 0.00 | 0.00 | 0.00 | 93 | 1014.5 |
| 20260902114141 | 70 | 32 | 2.0 | 2.0 | 0.00 | 0.00 | 0.00 | 93 | 1014.4 |
| 20260902113637 | 70 | 85 | 0.0 | 2.0 | 0.00 | 0.00 | 0.00 | 93 | 1014.3 |
| 20260902113132 | 70 | 25 | 2.0 | 2.0 | 0.00 | 0.00 | 0.00 | 93 | 1014.4 |
| 20260902113007 | 70 | 271 | 0.0 | 1.0 | 0.00 | 0.05 | 0.01 | 95 | 1012.6 |
| 20260902112626 | 70 | 25 | 0.0 | 1.0 | 0.00 | 0.00 | 0.00 | 94 | 1014.5 |
| 20260902112124 | 69 | 80 | 1.0 | 2.0 | 0.00 | 0.00 | 0.00 | 93 | 1014.4 |
| 20260902111619 | 69 | 239 | 0.0 | 1.0 | 0.00 | 0.00 | 0.00 | 94 | 1014.4 |
| 20260902111506 | 69 | 251 | 1.0 | 3.0 | 0.00 | 0.05 | 0.01 | 95 | 1012.5 |
| 20260902111115 | 69 | 236 | 1.0 | 2.0 | 0.00 | 0.00 | 0.00 | 94 | 1014.2 |
| 20260902110605 | 69 | 34 | 0.0 | 2.0 | 0.00 | 0.00 | 0.00 | 94 | 1014.5 |
| 20260902110008 | 69 | 273 | 1.0 | 2.0 | 0.00 | 0.05 | 0.01 | 95 | 1012.5 |
| 20260902105600 | 69 | 65 | 1.0 | 2.0 | 0.00 | 0.00 | 0.00 | 94 | 1014.3 |
| 20260902105055 | 69 | 89 | 0.0 | 2.0 | 0.00 | 0.00 | 0.00 | 94 | 1014.5 |
| 20260902104551 | 69 | 45 | 2.0 | 2.0 | 0.00 | 0.00 | 0.00 | 94 | 1014.4 |
| 20260902104506 | 69 | 133 | 1.0 | 1.0 | 0.00 | 0.05 | 0.01 | 95 | 1012.6 |
| 20260902104050 | 69 | 31 | 2.0 | 3.0 | 0.00 | 0.00 | 0.00 | 94 | 1014.3 |
| 20260902103546 | 69 | 73 | 0.0 | 2.0 | 0.00 | 0.00 | 0.00 | 94 | 1014.5 |
| 20260902103041 | 69 | 29 | 1.0 | 2.0 | 0.00 | 0.00 | 0.00 | 94 | 1014.6 |
| 20260902103007 | 69 | 235 | 0.0 | 3.0 | 0.00 | 0.05 | 0.01 | 95 | 1012.6 |
| 20260902102537 | 69 | 229 | 2.0 | 3.0 | 0.00 | 0.00 | 0.00 | 94 | 1014.6 |
| 20260902102034 | 69 | 63 | 0.0 | 2.0 | 0.00 | 0.00 | 0.00 | 94 | 1014.6 |
| 20260902101529 | 69 | 58 | 0.0 | 1.0 | 0.00 | 0.00 | 0.00 | 94 | 1014.6 |
| 20260902101029 | 69 | 51 | 0.0 | 2.0 | 0.00 | 0.00 | 0.00 | 94 | 1014.4 |
| 20260902100529 | 69 | 77 | 0.0 | 2.0 | 0.00 | 0.00 | 0.00 | 94 | 1014.4 |